Вернуться в каталог

SL-8 R/B

АктивенPO
NORAD 15506·ROCKET BODY·🇷🇺 Russia

Запущен Feb 1, 1985 с Plesetsk Cosmodrome

Loading…

Ближайшие Пролёты (ближайшие 24 часа)

TLE

СвежийSource: Space-Track

Эпоха: Sep 14, 2026, 21:56 UTC

1 15506U 85011B   26257.91457329  .00000108  00000-0  94539-4 0  9997
2 15506  82.9188 306.5820 0035556 331.6490 145.9568 13.76529824 89618

Отслеживайте SL-8 R/B в реальном времени с AllMySat

Download on the App Store